Regional Weather Roundup
Issued by NWS Cleveland, OH

Home | Current Version | Previous Version | Text Only | Print | Product List | Glossary Off
Versions: 1 2 3 4 5 6 7 8 9 10 11 12 13 14 15 16 17 18 19 20 21 22 23 24 25 26 27 28 29 30 31 32 33 34 35 36 37 38 39 40 41 42 43 44 45 46 47 48 49 50

000
ASUS41 KCLE 222002
RWRCLE
OHIO REGIONAL WEATHER ROUNDUP
NATIONAL WEATHER SERVICE CLEVELAND, OH
400 PM EDT TUE MAY 22 2018

NOTE: "FAIR" INDICATES FEW OR NO CLOUDS BELOW 12,000 FEET WITH NO
SIGNIFICANT WEATHER AND/OR OBSTRUCTIONS TO VISIBILITY.

OHZ001>008-015>018-024>027-034-035-043-044-222100-
   NORTHWEST OHIO

CITY           SKY/WX    TMP DP  RH WIND       PRES   REMARKS
DEFIANCE       FAIR      78  61  55 W10G17    29.96F
FINDLAY        PTSUNNY   78  68  71 NW12      29.94R
TOLEDO EXPRESS FAIR      80  62  54 W16G28    29.93F
TOLEDO EXEC    FAIR      79  63  57 W14       29.93F
LIMA           CLOUDY    76  68  76 W8        29.95S
$$

OHZ009>014-019>023-028>033-038-089-222100-
   NORTHEAST OHIO

CITY           SKY/WX    TMP DP  RH WIND       PRES   REMARKS
CLE-HOPKINS    CLOUDY    71  65  81 S3        29.96F
CLE-LAKEFRONT  CLOUDY    66  63  90 CALM      29.93F FOG
CUY CO. ARPT   CLOUDY    70  66  88 NW6       29.96F FOG
LORAIN-ELYRIA  PTSUNNY   69  62  78 CALM      29.95F
ASHTABULA      FAIR      71  66  84 NW5       29.95F
AKRON-CANTON   PTSUNNY   80  65  59 SW12      29.95F
WOOSTER        FAIR      77  64  64 W13G22    29.95F
MANSFIELD      CLOUDY    72  61  68 NW7       29.97S
YOUNGSTOWN     TSTM      73  65  75 E3        29.95F
$$

OHZ042-051>053-060>062-070>072-077>081-222100-
  SOUTHWEST OHIO

CITY           SKY/WX    TMP DP  RH WIND       PRES   REMARKS
CINC-COVINGTON PTSUNNY   81  69  67 S9        29.99F
CINC-LUNKEN    PTSUNNY   81  70  69 S9        29.98F
HAMILTON       FAIR      84  70  62 SW8       29.98F
DAYTON         FAIR      82  68  62 W16       29.97F
WRIGHT-PAT AFB PTSUNNY   81  67  62 SW9       29.96F
DAYTON GENERAL FAIR      83  65  54 SW13      29.97F
WILMINGTON     PTSUNNY   78  70  76 S10       29.98F
$$

OHZ036-037-039>041-045>050-054>059-063>069-073>076-082>088-222100-
  CENTRAL AND SOUTHEAST OHIO

CITY           SKY/WX    TMP DP  RH WIND       PRES   REMARKS
COLUMBUS       PTSUNNY   81  66  60 SW12      29.94F
OSU AIRPORT    PTSUNNY   80  66  62 SW10      29.95F
BOLTON FIELD   PTSUNNY   81  70  69 SW14G21   29.97F
RICKENBACK AFB PTSUNNY   81  67  62 MISG      29.95F
NEWARK         FAIR      81  68  64 SW9       29.95F
MARION         PTSUNNY   80  64  58 W12G22    29.96F
LANCASTER      FAIR      80  69  69 SW12      29.97F
ZANESVILLE     FAIR      79  67  66 SW9       29.97F
NEW PHILLY     NOT AVBL
$$



USA.gov is the U.S. government's official web portal to all federal, state and local government web resources and services.